Weather History for Inverness, FL

Change the Weather History Date:

Sunday, December 9, 2012

  Actual Average (KOCF) Record (KOCF)
Temperature  
Mean Temperature 69 °F -  
Max Temperature 78 °F 69 °F 84 °F (2013)
Min Temperature 60 °F 47 °F 35 °F (1996)
Cooling Degree Days 4    
Growing Degree Days 19 (Base 50)    
Moisture  
Dew Point 65 °F    
Average Humidity 92    
Maximum Humidity 100    
Minimum Humidity 61    
Precipitation  
Precipitation 0.01 in - - ()
Sea Level Pressure  
Sea Level Pressure 30.06 in    
Wind  
Wind Speed 1 mph (NNW)    
Max Wind Speed 5 mph    
Max Gust Speed -    
Visibility 5 miles    
Events Fog , Rain    
Averages and records for this station are not official NWS values.
T = Trace of Precipitation, MM = Missing Value Source: NWS Daily Summary

Daily Weather History Graph

Daily Weather History Graph

Search for Another Location

Airport:

Trip Planner

Search our weather history database for the weather conditions in past years. The results will help you decide how hot, cold, wet, or windy it might be!

Date:

Astronomy

Dec. 09, 2012 Rise Set
Actual Time 7:11 AM EST 5:32 PM EST
Civil Twilight 6:45 AM EST 5:58 PM EST
Nautical Twilight 6:15 AM EST 6:27 PM EST
Astronomical Twilight 5:47 AM EST 6:56 PM EST
Moon 2:57 AM EST (12/9) 2:26 PM EST (12/9)
Length of Visible Light 11h 13m
Length of Day
10h 21m
Waning Crescent, 19% of the Moon is Illuminated
Dec 9
Waning Crescent
Dec 13
New
Dec 20
First Quarter
Dec 28
Full
Jan 4
Last Quarter

Hourly Weather History & Observations

Time (EST) Temp. Dew Point Humidity Pressure Visibility Wind Dir Wind Speed Gust Speed Precip Events Conditions
12:15 AM 68.0 °F 68.0 °F 100% 30.07 in 5.0 mi ENE 3.5 mph - 0.01 in Rain Rain
12:35 AM 68.0 °F 68.0 °F 100% 30.06 in 7.0 mi Calm Calm - 0.01 in   Overcast
12:55 AM 68.0 °F 68.0 °F 100% 30.06 in 5.0 mi Calm Calm - 0.01 in   Overcast
1:15 AM 68.0 °F 68.0 °F 100% 30.06 in 7.0 mi Calm Calm - N/A Rain Rain
1:35 AM 68.0 °F 66.2 °F 94% 30.05 in 5.0 mi Calm Calm - N/A   Overcast
1:55 AM 68.0 °F 66.2 °F 94% 30.05 in 7.0 mi Calm Calm - N/A   Overcast
2:15 AM 68.0 °F 66.2 °F 94% 30.04 in 7.0 mi East 3.5 mph - N/A   Overcast
2:35 AM 68.0 °F 66.2 °F 94% 30.04 in 10.0 mi Calm Calm - N/A   Overcast
2:55 AM 66.2 °F 66.2 °F 100% 30.04 in 5.0 mi Calm Calm - N/A   Overcast
3:15 AM 66.2 °F 66.2 °F 100% 30.03 in 4.0 mi Calm Calm - N/A   Overcast
3:35 AM 66.2 °F 66.2 °F 100% 30.04 in 5.0 mi Calm Calm - N/A   Overcast
3:55 AM 66.2 °F 66.2 °F 100% 30.03 in 4.0 mi Calm Calm - N/A   Overcast
4:15 AM 66.2 °F 66.2 °F 100% 30.03 in 1.5 mi Calm Calm - N/A   Overcast
4:35 AM 64.4 °F 64.4 °F 100% 30.03 in 0.8 mi Calm Calm - N/A   Overcast
4:55 AM 66.2 °F 66.2 °F 100% 30.04 in 4.0 mi Calm Calm - N/A   Mostly Cloudy
5:15 AM 66.2 °F 66.2 °F 100% 30.04 in 2.0 mi Calm Calm - N/A   Overcast
5:35 AM 66.2 °F 66.2 °F 100% 30.05 in 1.5 mi Calm Calm - N/A   Overcast
5:55 AM 66.2 °F 66.2 °F 100% 30.06 in 0.8 mi Calm Calm - N/A   Overcast
6:15 AM 66.2 °F 66.2 °F 100% 30.06 in 1.0 mi Calm Calm - N/A   Overcast
6:35 AM 66.2 °F 66.2 °F 100% 30.07 in 0.8 mi Calm Calm - N/A   Overcast
7:15 AM 64.4 °F 64.4 °F 100% 30.07 in 0.2 mi Calm Calm - N/A Fog Fog
7:35 AM 64.4 °F 64.4 °F 100% 30.07 in 0.2 mi Calm Calm - N/A Fog Fog
7:55 AM 64.4 °F 64.4 °F 100% 30.08 in 0.2 mi Calm Calm - N/A Fog Fog
8:15 AM 66.2 °F 66.2 °F 100% 30.09 in 0.2 mi Calm Calm - N/A Fog Fog
8:35 AM 66.2 °F 66.2 °F 100% 30.09 in 0.2 mi Calm Calm - N/A Fog Fog
8:55 AM 66.2 °F 66.2 °F 100% 30.10 in 0.2 mi Calm Calm - N/A Fog Fog
9:15 AM 66.2 °F 66.2 °F 100% 30.11 in 0.2 mi Calm Calm - N/A Fog Fog
9:35 AM 68.0 °F 66.2 °F 94% 30.11 in 0.8 mi Calm Calm - N/A   Overcast
9:55 AM 68.0 °F 68.0 °F 100% 30.12 in 5.0 mi Calm Calm - N/A   Overcast
10:15 AM 68.0 °F 68.0 °F 100% 30.12 in 5.0 mi Calm Calm - N/A   Overcast
10:35 AM 68.0 °F 68.0 °F 100% 30.12 in 7.0 mi Calm Calm - N/A   Overcast
10:55 AM 69.8 °F 69.8 °F 100% 30.11 in 10.0 mi Calm Calm - N/A   Overcast
11:15 AM 69.8 °F 69.8 °F 100% 30.11 in 10.0 mi Calm Calm - N/A   Overcast
11:35 AM 69.8 °F 68.0 °F 94% 30.10 in 10.0 mi Calm Calm - N/A   Overcast
11:55 AM 71.6 °F 68.0 °F 88% 30.09 in 10.0 mi Calm Calm - N/A   Overcast
12:15 PM 71.6 °F 68.0 °F 88% 30.09 in 10.0 mi West 3.5 mph - N/A   Overcast
12:35 PM 73.4 °F 68.0 °F 83% 30.07 in 10.0 mi NNW 3.5 mph - N/A   Overcast
12:55 PM 73.4 °F 68.0 °F 83% 30.06 in 10.0 mi NNW 3.5 mph - N/A   Overcast
1:15 PM 73.4 °F 68.0 °F 83% 30.06 in 10.0 mi Calm Calm - N/A   Mostly Cloudy
1:35 PM 75.2 °F 68.0 °F 78% 30.05 in 10.0 mi NNW 3.5 mph - N/A   Mostly Cloudy
1:55 PM 77.0 °F 66.2 °F 69% 30.04 in 10.0 mi North 4.6 mph - N/A   Mostly Cloudy
2:15 PM 75.2 °F 66.2 °F 73% 30.03 in 10.0 mi NNE 3.5 mph - N/A   Scattered Clouds
2:35 PM 77.0 °F 64.4 °F 65% 30.03 in 10.0 mi North 4.6 mph - N/A   Scattered Clouds
2:55 PM 77.0 °F 64.4 °F 65% 30.03 in 10.0 mi Calm Calm - N/A   Scattered Clouds
3:15 PM 77.0 °F 64.4 °F 65% 30.03 in 10.0 mi Calm Calm - N/A   Scattered Clouds
3:35 PM 77.0 °F 64.4 °F 65% 30.03 in 10.0 mi Calm Calm - N/A   Scattered Clouds
3:55 PM 78.8 °F 64.4 °F 61% 30.03 in 10.0 mi West 3.5 mph - N/A   Scattered Clouds
4:15 PM 77.0 °F 64.4 °F 65% 30.03 in 10.0 mi Calm Calm - N/A   Scattered Clouds
4:35 PM 75.2 °F 64.4 °F 69% 30.03 in 10.0 mi Calm Calm - N/A   Clear
4:55 PM 73.4 °F 62.6 °F 69% 30.03 in 10.0 mi Calm Calm - N/A   Clear
5:15 PM 71.6 °F 64.4 °F 78% 30.03 in 10.0 mi Calm Calm - N/A   Clear
5:35 PM 69.8 °F 64.4 °F 83% 30.04 in 10.0 mi Calm Calm - N/A   Clear
5:55 PM 68.0 °F 64.4 °F 88% 30.04 in 10.0 mi Calm Calm - N/A   Clear
6:15 PM 68.0 °F 64.4 °F 88% 30.05 in 10.0 mi Calm Calm - N/A   Clear
6:35 PM 64.4 °F 64.4 °F 100% 30.06 in 10.0 mi Calm Calm - N/A   Clear
6:55 PM 66.2 °F 64.4 °F 94% 30.06 in 10.0 mi Calm Calm - N/A   Clear
7:15 PM 66.2 °F 64.4 °F 94% 30.06 in 10.0 mi Calm Calm - N/A   Clear
7:35 PM 66.2 °F 64.4 °F 94% 30.06 in 10.0 mi WNW 3.5 mph - N/A   Clear
7:55 PM 64.4 °F 64.4 °F 100% 30.06 in 7.0 mi Calm Calm - N/A   Clear
8:15 PM 64.4 °F 62.6 °F 94% 30.06 in 4.0 mi Calm Calm - N/A   Scattered Clouds
8:35 PM 64.4 °F 62.6 °F 94% 30.06 in 0.8 mi WNW 3.5 mph - N/A   Overcast
8:55 PM 62.6 °F 62.6 °F 100% 30.07 in 0.2 mi Calm Calm - N/A Fog Fog
9:15 PM 62.6 °F 62.6 °F 100% 30.06 in 0.2 mi Calm Calm - N/A Fog Fog
9:35 PM 62.6 °F 62.6 °F 100% 30.06 in 0.2 mi Calm Calm - N/A Fog Fog
9:55 PM 62.6 °F 62.6 °F 100% 30.06 in 0.2 mi Calm Calm - N/A Fog Fog
10:15 PM 62.6 °F 62.6 °F 100% 30.06 in 0.2 mi Calm Calm - N/A Fog Fog
10:35 PM 62.6 °F 62.6 °F 100% 30.06 in 0.2 mi Calm Calm - N/A Fog Fog
10:55 PM 62.6 °F 62.6 °F 100% 30.06 in 0.2 mi Calm Calm - N/A Fog Fog
11:15 PM 62.6 °F 62.6 °F 100% 30.06 in 0.2 mi Calm Calm - N/A Fog Fog
11:35 PM 60.8 °F 60.8 °F 100% 30.05 in 0.2 mi Calm Calm - N/A Fog Fog
11:55 PM 60.8 °F 60.8 °F 100% 30.05 in 0.2 mi Calm Calm - N/A Fog Fog